Regional Weather Roundup
Issued by NWS

Home | Current Version | Previous Version | Text Only | Print | Product List | Glossary Off
Versions: 1 2 3 4 5 6 7 8 9 10 11 12 13 14 15 16 17 18 19 20 21 22 23 24 25 26 27 28 29 30 31 32 33 34 35 36 37 38 39 40 41 42 43 44 45 46 47 48 49 50

000
ASUS45 KCYS 190110
RWRWY

WYOMING REGIONAL WEATHER ROUNDUP
NATIONAL WEATHER SERVICE CHEYENNE WY
600 PM MST THU DEC 18 2014

NOTE:  "FAIR" INDICATES FEW OR NO CLOUDS BELOW 12,000 FEET
WITH NO SIGNIFICANT WEATHER AND/OR OBSTRUCTIONS TO VISIBILITY.

WYZ001-190200-
YELLOWSTONE NATIONAL PARK

CITY           SKY/WX    TMP DP  RH WIND       PRES   REMARKS
LK YELLOWSTONE   N/A     23  16  74 VRB7      30.08R WCI  15
W YELLOWSTONE  NOT AVBL

$$
WYZ002>013-054>058-071-098>099-190200-
NORTHERN WYOMING

CITY           SKY/WX    TMP DP  RH WIND       PRES   REMARKS
JACKSON        LGT SNOW  25  25 100 CALM      30.10R
CODY           FAIR      34  21  60 W10G18    29.99R WCI  26
GREYBULL       FAIR      19  14  81 S5        30.06S WCI  12
WORLAND        FAIR      14   8  77 S9        30.05S WCI   2
SHERIDAN       FAIR      26  16  65 NE3       29.97R
BUFFALO        FAIR      32  14  47 W7        29.98R WCI  26
GILLETTE       FAIR      30  18  60 SW13      29.98S WCI  20
HULETT           N/A    N/A N/A N/A MISG        N/A
NEWCASTLE      FAIR      28  23  80 E3        30.02S

$$
WYZ014>020-022>026-101>103-190200-
CENTRAL WYOMING

CITY           SKY/WX    TMP DP  RH WIND       PRES   REMARKS
BIG PINEY      FAIR      17  10  74 N8        30.09R WCI   7
PINEDALE       FAIR      16  12  86 W6        30.09S WCI   7
DUBOIS         FAIR      25  16  68 NW5       30.03S WCI  19
LANDER         FAIR       9   5  84 CALM      30.06S
RIVERTON       FOG       12   9  87 W5        30.07S VSB 1/4 WCI   4
CASPER         FAIR      19  14  81 W12       30.04S WCI   7
DOUGLAS        FAIR      25  18  74 NW7       30.04R WCI  17

$$
WYZ021-027>030-104>119-190200-
SOUTHERN WYOMING

CITY           SKY/WX    TMP DP  RH WIND       PRES   REMARKS
EVANSTON       CLOUDY    26  21  81 W9        30.12R WCI  17
KEMMERER       CLOUDY    28  23  80 W7        30.10S WCI  21
FORT BRIDGER   CLOUDY    30  26  88 W8        30.14R WCI  22
ROCK SPRINGS   FAIR      23  17  78 SW8       30.10R WCI  14
DIXON          CLOUDY    22  20  96 CALM      30.15S
RAWLINS        FAIR      21  16  81 SW9       30.09R WCI  11
SARATOGA       FAIR      18  14  86 CALM      30.11R
LARAMIE        FAIR      20  14  77 E10       30.03R WCI   9
CHEYENNE       FAIR      27  17  66 W8        30.03R WCI  19
TORRINGTON     FAIR      31  23  72 W3        30.04R
PINE BLUFFS    FAIR      30  21  69 CALM      30.05S

$$


USA.gov is the U.S. government's official web portal to all federal, state and local government web resources and services.